Tracking 30106 objects as of 23-Jan-2025
HD Live streaming from Space Station
objects crossing your sky now

BRIO

Track BRIO now!
10-day predictions


NORAD ID: 43813
Int'l Code: 2018-099BH
Perigee: 454.8 km
Apogee: 460.3 km
Inclination: 97.5 °
Period: 93.6 minutes
Semi major axis: 6828 km
RCS: Unknown
Launch date: December 3, 2018
Source: United States (US)
Launch site: AIR FORCE WESTERN TEST RANGE (AFWTR)
Your satellite tracking list
Your tracking list is empty




NASA's NSSDC Master Catalog

Two Line Element Set (TLE):
1 43813U 18099BH  25023.06316756  .00077739  00000-0  20271-2 0  9999
2 43813  97.5381  99.3831 0004011 242.8305 117.2531 15.38541736336192
Source of the keplerian elements: AFSPC